| time (UTC) | temp F | wind direction | speed knots | gust knots | rain 1hr in | rain 24hr in | rain mn in | humidity % | barometer mb |
| 20260505211522 | 84 | 80 | 1.7 | 6.1 | 0.00 | 0.00 | 0.00 | 72 | 1007.8 |
| 20260505210511 | 84 | 72 | 2.6 | 6.1 | 0.00 | 0.00 | 0.00 | 71 | 1007.9 |
| 20260505210025 | 84 | 275 | 1.7 | 5.2 | 0.00 | 0.00 | 0.00 | 71 | 1008.0 |
| 20260505204510 | 84 | 87 | 1.7 | 8.7 | 0.00 | 0.00 | 0.00 | 70 | 1008.2 |
| 20260505204010 | 84 | 93 | 2.6 | 8.7 | 0.00 | 0.00 | 0.00 | 70 | 1008.2 |
| 20260505203507 | 84 | 50 | 1.7 | 4.3 | 0.00 | 0.00 | 0.00 | 70 | 1008.3 |
| 20260505203027 | 85 | 84 | 0.9 | 4.3 | 0.00 | 0.00 | 0.00 | 70 | 1008.4 |
| 20260505202512 | 84 | 279 | 1.7 | 4.3 | 0.00 | 0.00 | 0.00 | 71 | 1008.3 |
| 20260505202008 | 84 | 103 | 2.6 | 4.3 | 0.00 | 0.00 | 0.00 | 71 | 1008.5 |
| 20260505201522 | 84 | 55 | 0.9 | 5.2 | 0.00 | 0.00 | 0.00 | 73 | 1008.6 |
| 20260505201009 | 83 | 63 | 0.9 | 5.2 | 0.00 | 0.00 | 0.00 | 74 | 1008.7 |
| 20260505200511 | 83 | 91 | 0.0 | 3.5 | 0.00 | 0.00 | 0.00 | 74 | 1008.9 |
| 20260505200025 | 83 | 56 | 0.9 | 5.2 | 0.00 | 0.00 | 0.00 | 74 | 1008.9 |
| 20260505195511 | 83 | 69 | 0.9 | 7.8 | 0.00 | 0.00 | 0.00 | 74 | 1009.0 |
| 20260505194512 | 83 | 63 | 1.7 | 7.8 | 0.00 | 0.00 | 0.00 | 73 | 1009.1 |
| 20260505194004 | 83 | 84 | 2.6 | 7.0 | 0.00 | 0.00 | 0.00 | 73 | 1009.1 |
| 20260505193509 | 82 | 69 | 2.6 | 6.1 | 0.00 | 0.00 | 0.00 | 74 | 1009.1 |
| 20260505193020 | 82 | 50 | 2.6 | 6.1 | 0.00 | 0.00 | 0.00 | 74 | 1009.1 |
| 20260505192509 | 82 | 281 | 0.9 | 3.5 | 0.00 | 0.00 | 0.00 | 73 | 1009.1 |
| 20260505192012 | 83 | 49 | 0.9 | 4.3 | 0.00 | 0.00 | 0.00 | 72 | 1009.1 |
| 20260505191523 | 83 | 62 | 1.7 | 4.3 | 0.00 | 0.00 | 0.00 | 73 | 1009.1 |
| 20260505191009 | 83 | 51 | 0.9 | 4.3 | 0.00 | 0.00 | 0.00 | 74 | 1009.2 |
| 20260505190512 | 82 | 32 | 0.9 | 5.2 | 0.00 | 0.00 | 0.00 | 74 | 1009.2 |
| 20260505190034 | 82 | 53 | 1.7 | 6.1 | 0.00 | 0.00 | 0.00 | 74 | 1009.1 |
| 20260505185513 | 82 | 69 | 0.9 | 6.1 | 0.00 | 0.00 | 0.00 | 74 | 1009.2 |
| 20260505185005 | 82 | 51 | 0.9 | 5.2 | 0.00 | 0.00 | 0.00 | 75 | 1009.2 |
| 20260505184514 | 81 | 271 | 0.9 | 5.2 | 0.00 | 0.00 | 0.00 | 76 | 1009.3 |
| 20260505184007 | 81 | 271 | 0.0 | 5.2 | 0.00 | 0.00 | 0.00 | 76 | 1009.4 |
| 20260505183508 | 82 | 79 | 0.9 | 3.5 | 0.00 | 0.00 | 0.00 | 76 | 1009.4 |
| 20260505183018 | 82 | 53 | 0.9 | 3.5 | 0.00 | 0.00 | 0.00 | 76 | 1009.4 |
| 20260505182507 | 81 | 65 | 0.9 | 4.3 | 0.00 | 0.00 | 0.00 | 76 | 1009.4 |
| 20260505182013 | 81 | 269 | 1.7 | 4.3 | 0.00 | 0.00 | 0.00 | 76 | 1009.4 |
| 20260505181527 | 81 | 63 | 1.7 | 4.3 | 0.00 | 0.00 | 0.00 | 76 | 1009.5 |
| 20260505181011 | 81 | 57 | 0.0 | 5.2 | 0.00 | 0.00 | 0.00 | 77 | 1009.6 |
| 20260505180511 | 81 | 59 | 1.7 | 5.2 | 0.00 | 0.00 | 0.00 | 76 | 1009.5 |
| 20260505180026 | 81 | 54 | 1.7 | 5.2 | 0.00 | 0.00 | 0.00 | 77 | 1009.5 |
| 20260505175510 | 80 | 44 | 0.9 | 3.5 | 0.00 | 0.00 | 0.00 | 78 | 1009.6 |
| 20260505175014 | 80 | 49 | 0.0 | 5.2 | 0.00 | 0.00 | 0.00 | 79 | 1009.7 |
| 20260505174517 | 80 | 67 | 0.9 | 5.2 | 0.00 | 0.00 | 0.00 | 78 | 1009.7 |
| 20260505174007 | 80 | 71 | 1.7 | 5.2 | 0.00 | 0.00 | 0.00 | 78 | 1009.8 |
| 20260505173507 | 80 | 24 | 0.9 | 3.5 | 0.00 | 0.00 | 0.00 | 79 | 1009.8 |
| 20260505173034 | 79 | 80 | 0.9 | 3.5 | 0.00 | 0.00 | 0.00 | 79 | 1009.9 |
| 20260505172511 | 79 | 22 | 0.9 | 2.6 | 0.00 | 0.00 | 0.00 | 80 | 1010.0 |
| 20260505172010 | 80 | 53 | 0.0 | 2.6 | 0.00 | 0.00 | 0.00 | 80 | 1010.0 |
| 20260505171538 | 79 | 58 | 0.0 | 3.5 | 0.00 | 0.00 | 0.00 | 80 | 1010.0 |
| 20260505171011 | 79 | 34 | 0.9 | 5.2 | 0.00 | 0.00 | 0.00 | 80 | 1010.0 |
| 20260505170510 | 79 | 38 | 1.7 | 5.2 | 0.00 | 0.00 | 0.00 | 81 | 1010.1 |
| 20260505170027 | 79 | 40 | 0.9 | 3.5 | 0.00 | 0.00 | 0.00 | 80 | 1010.0 |
| 20260505165511 | 79 | 59 | 1.7 | 4.3 | 0.00 | 0.00 | 0.00 | 80 | 1010.1 |
| 20260505165004 | 79 | 60 | 1.7 | 4.3 | 0.00 | 0.00 | 0.00 | 80 | 1010.1 |
| 20260505164519 | 79 | 63 | 1.7 | 4.3 | 0.00 | 0.00 | 0.00 | 80 | 1010.1 |
| 20260505164007 | 79 | 250 | 0.0 | 2.6 | 0.00 | 0.00 | 0.00 | 81 | 1010.1 |
| 20260505163508 | 79 | 246 | 0.9 | 4.3 | 0.00 | 0.00 | 0.00 | 81 | 1010.0 |
| 20260505163025 | 79 | 55 | 0.9 | 4.3 | 0.00 | 0.00 | 0.00 | 81 | 1010.0 |
| 20260505162509 | 79 | 36 | 0.0 | 3.5 | 0.00 | 0.00 | 0.00 | 82 | 1010.1 |
| 20260505162011 | 78 | 59 | 0.9 | 3.5 | 0.00 | 0.00 | 0.00 | 82 | 1010.0 |
| 20260505161526 | 78 | 44 | 0.9 | 3.5 | 0.00 | 0.00 | 0.00 | 82 | 1010.0 |
| 20260505161011 | 78 | 277 | 0.0 | 2.6 | 0.00 | 0.00 | 0.00 | 83 | 1010.0 |
| 20260505160515 | 78 | 65 | 0.9 | 5.2 | 0.00 | 0.00 | 0.00 | 82 | 1010.0 |
| 20260505152504 | 75 | 54 | 0.9 | 3.5 | 0.00 | 0.00 | 0.00 | 87 | 1009.8 |
| 20260505152004 | 75 | 49 | 0.9 | 3.5 | 0.00 | 0.00 | 0.00 | 86 | 1009.8 |
| 20260505151511 | 76 | 82 | 0.9 | 2.6 | 0.00 | 0.00 | 0.00 | 86 | 1009.8 |
| 20260505151004 | 76 | 67 | 0.0 | 5.2 | 0.00 | 0.00 | 0.00 | 85 | 1009.7 |
| 20260505150507 | 76 | 73 | 0.9 | 5.2 | 0.00 | 0.00 | 0.00 | 85 | 1009.7 |
| 20260505140508 | 76 | 56 | 1.7 | 5.2 | 0.00 | 0.00 | 0.00 | 85 | 1009.5 |
| 20260505125011 | 73 | 71 | 0.9 | 2.6 | 0.00 | 0.00 | 0.00 | 89 | 1009.4 |
| 20260505124507 | 72 | 79 | 0.9 | 3.5 | 0.00 | 0.00 | 0.00 | 90 | 1009.1 |
| 20260505124007 | 72 | 352 | 0.9 | 5.2 | 0.00 | 0.00 | 0.00 | 90 | 1009.2 |
| 20260505123503 | 72 | 78 | 1.7 | 5.2 | 0.00 | 0.00 | 0.00 | 90 | 1009.1 |
| 20260505123012 | 72 | 57 | 0.9 | 2.6 | 0.00 | 0.00 | 0.00 | 90 | 1009.3 |
| 20260505122507 | 72 | 59 | 0.0 | 2.6 | 0.00 | 0.00 | 0.00 | 90 | 1009.2 |
| 20260505122008 | 71 | 76 | 0.9 | 2.6 | 0.00 | 0.00 | 0.00 | 90 | 1009.1 |
| 20260505121518 | 71 | 63 | 0.9 | 2.6 | 0.00 | 0.00 | 0.00 | 90 | 1009.0 |
| 20260505120507 | 71 | 360 | 0.0 | 2.6 | 0.00 | 0.00 | 0.00 | 91 | 1009.0 |
| 20260505120051 | 71 | 75 | 0.0 | 2.6 | 0.00 | 0.00 | 0.00 | 90 | 1008.8 |
| 20260505115508 | 71 | 61 | 0.9 | 2.6 | 0.00 | 0.00 | 0.00 | 90 | 1008.8 |
| 20260505115010 | 71 | 61 | 0.0 | 2.6 | 0.00 | 0.00 | 0.00 | 90 | 1008.8 |
| 20260505114002 | 71 | 72 | 0.9 | 2.6 | 0.00 | 0.00 | 0.00 | 90 | 1008.7 |
| 20260505112513 | 71 | 59 | 0.9 | 2.6 | 0.00 | 0.00 | 0.00 | 90 | 1009.2 |
| 20260505111521 | 71 | 71 | 0.9 | 1.7 | 0.00 | 0.00 | 0.00 | 90 | 1008.9 |
| 20260505110511 | 71 | 92 | 0.0 | 3.5 | 0.00 | 0.00 | 0.00 | 90 | 1008.8 |
| 20260505102015 | 71 | 88 | 0.9 | 2.6 | 0.00 | 0.00 | 0.00 | 89 | 1008.9 |
| 20260505101525 | 71 | 53 | 0.0 | 3.5 | 0.00 | 0.00 | 0.00 | 89 | 1008.9 |
| 20260505101010 | 71 | 76 | 0.9 | 3.5 | 0.00 | 0.00 | 0.00 | 89 | 1008.8 |
| 20260505100508 | 71 | 86 | 0.9 | 2.6 | 0.00 | 0.00 | 0.00 | 89 | 1008.8 |
| 20260505100029 | 71 | 83 | 0.9 | 2.6 | 0.00 | 0.00 | 0.00 | 89 | 1008.9 |
| 20260505095008 | 71 | 64 | 0.9 | 3.5 | 0.00 | 0.00 | 0.00 | 89 | 1009.1 |
| 20260505094512 | 71 | 54 | 0.0 | 2.6 | 0.00 | 0.00 | 0.00 | 89 | 1009.1 |
| 20260505094006 | 71 | 74 | 0.0 | 2.6 | 0.00 | 0.00 | 0.00 | 89 | 1009.0 |
| 20260505093506 | 70 | 67 | 0.9 | 2.6 | 0.00 | 0.00 | 0.00 | 89 | 1008.9 |
| 20260505093022 | 70 | 65 | 0.9 | 2.6 | 0.00 | 0.00 | 0.00 | 89 | 1009.0 |
| 20260505092507 | 70 | 78 | 0.0 | 1.7 | 0.00 | 0.00 | 0.00 | 89 | 1009.0 |
| 20260505092010 | 70 | 63 | 0.0 | 1.7 | 0.00 | 0.00 | 0.00 | 89 | 1009.0 |
| 20260505091528 | 70 | 73 | 0.0 | 1.7 | 0.00 | 0.00 | 0.00 | 89 | 1009.1 |
| 20260505091012 | 70 | 64 | 0.0 | 1.7 | 0.00 | 0.00 | 0.00 | 89 | 1009.2 |
| 20260505090510 | 70 | 67 | 0.0 | 1.7 | 0.00 | 0.00 | 0.00 | 89 | 1009.2 |
| 20260505090038 | 70 | 64 | 0.0 | 1.7 | 0.00 | 0.00 | 0.00 | 89 | 1009.2 |
| 20260505085510 | 70 | 74 | 0.0 | 1.7 | 0.00 | 0.00 | 0.00 | 89 | 1009.2 |
| 20260505085006 | 70 | 71 | 0.0 | 1.7 | 0.00 | 0.00 | 0.00 | 89 | 1009.2 |
| 20260505084007 | 70 | 60 | 0.0 | 1.7 | 0.00 | 0.00 | 0.00 | 89 | 1009.2 |
| 20260505083507 | 70 | 65 | 0.0 | 1.7 | 0.00 | 0.00 | 0.00 | 88 | 1009.2 |
| 20260505083021 | 70 | 69 | 0.0 | 0.9 | 0.00 | 0.00 | 0.00 | 88 | 1009.3 |
| 20260505082508 | 70 | 65 | 0.0 | 0.9 | 0.00 | 0.00 | 0.00 | 88 | 1009.5 |
| 20260505082010 | 70 | 68 | 0.0 | 1.7 | 0.00 | 0.00 | 0.00 | 88 | 1009.5 |
| 20260505081527 | 70 | 73 | 0.0 | 1.7 | 0.00 | 0.00 | 0.00 | 88 | 1009.6 |
| 20260505081008 | 70 | 64 | 0.0 | 1.7 | 0.00 | 0.00 | 0.00 | 87 | 1009.6 |
| 20260505080507 | 70 | 72 | 0.0 | 2.6 | 0.00 | 0.00 | 0.00 | 87 | 1009.6 |
| 20260505080033 | 70 | 74 | 0.0 | 2.6 | 0.00 | 0.00 | 0.00 | 87 | 1009.7 |
| 20260505075506 | 70 | 59 | 0.0 | 1.7 | 0.00 | 0.00 | 0.00 | 87 | 1009.7 |
| 20260505075007 | 70 | 72 | 0.0 | 1.7 | 0.00 | 0.00 | 0.00 | 87 | 1009.8 |
| 20260505074516 | 70 | 67 | 0.9 | 1.7 | 0.00 | 0.00 | 0.00 | 86 | 1009.8 |
| 20260505074007 | 70 | 59 | 0.0 | 2.6 | 0.00 | 0.00 | 0.00 | 86 | 1009.9 |
| 20260505073508 | 70 | 57 | 0.9 | 2.6 | 0.00 | 0.00 | 0.00 | 86 | 1009.8 |
| 20260505073040 | 70 | 69 | 0.0 | 1.7 | 0.00 | 0.00 | 0.00 | 86 | 1009.8 |
| 20260505072508 | 70 | 67 | 0.0 | 1.7 | 0.00 | 0.00 | 0.00 | 86 | 1009.8 |
| 20260505072011 | 70 | 64 | 0.9 | 2.6 | 0.00 | 0.00 | 0.00 | 86 | 1009.9 |
| 20260505071525 | 70 | 75 | 0.0 | 2.6 | 0.00 | 0.00 | 0.00 | 86 | 1009.9 |
| 20260505071011 | 70 | 68 | 0.9 | 2.6 | 0.00 | 0.00 | 0.00 | 85 | 1010.0 |
| 20260505070512 | 71 | 69 | 0.0 | 3.5 | 0.00 | 0.00 | 0.00 | 85 | 1010.1 |
| 20260505070028 | 71 | 67 | 0.9 | 4.3 | 0.00 | 0.00 | 0.00 | 85 | 1010.0 |
| 20260505065505 | 70 | 72 | 0.9 | 4.3 | 0.00 | 0.00 | 0.00 | 85 | 1010.0 |
| 20260505065006 | 71 | 67 | 0.9 | 3.5 | 0.00 | 0.00 | 0.00 | 85 | 1010.1 |
| 20260505064535 | 71 | 74 | 0.9 | 3.5 | 0.00 | 0.00 | 0.00 | 85 | 1010.1 |
| 20260505064007 | 71 | 107 | 0.9 | 4.3 | 0.00 | 0.00 | 0.00 | 84 | 1010.1 |
| 20260505063509 | 71 | 73 | 0.9 | 4.3 | 0.00 | 0.00 | 0.00 | 84 | 1010.2 |
| 20260505063026 | 71 | 67 | 0.9 | 4.3 | 0.00 | 0.00 | 0.00 | 84 | 1010.3 |
| 20260505062509 | 71 | 90 | 0.9 | 4.3 | 0.00 | 0.00 | 0.00 | 84 | 1010.4 |
| 20260505062011 | 71 | 74 | 0.9 | 3.5 | 0.00 | 0.00 | 0.00 | 84 | 1010.5 |
| 20260505061540 | 71 | 80 | 0.9 | 3.5 | 0.00 | 0.00 | 0.00 | 84 | 1010.7 |
| 20260505061010 | 71 | 78 | 0.9 | 2.6 | 0.00 | 0.00 | 0.00 | 84 | 1010.7 |
| 20260505060511 | 71 | 79 | 0.9 | 2.6 | 0.00 | 0.00 | 0.00 | 83 | 1010.9 |
| 20260505060033 | 71 | 69 | 0.9 | 3.5 | 0.00 | 0.00 | 0.00 | 83 | 1010.8 |
| 20260505055511 | 71 | 80 | 1.7 | 3.5 | 0.00 | 0.00 | 0.00 | 83 | 1010.8 |
| 20260505055011 | 71 | 85 | 0.9 | 2.6 | 0.00 | 0.00 | 0.00 | 83 | 1010.7 |
| 20260505054532 | 71 | 82 | 0.9 | 4.3 | 0.00 | 0.00 | 0.00 | 83 | 1010.7 |
| 20260505054007 | 71 | 67 | 1.7 | 4.3 | 0.00 | 0.00 | 0.00 | 83 | 1010.7 |
| 20260505053507 | 71 | 80 | 1.7 | 3.5 | 0.00 | 0.00 | 0.00 | 83 | 1010.7 |
| 20260505053008 | 71 | 68 | 0.9 | 3.5 | 0.00 | 0.00 | 0.00 | 83 | 1010.8 |
| 20260505052504 | 71 | 68 | 0.9 | 3.5 | 0.00 | 0.00 | 0.00 | 82 | 1010.9 |
| 20260505052004 | 71 | 72 | 0.9 | 2.6 | 0.00 | 0.00 | 0.00 | 82 | 1011.1 |
| 20260505051514 | 71 | 68 | 0.9 | 2.6 | 0.00 | 0.00 | 0.00 | 82 | 1011.1 |
| 20260505051006 | 71 | 63 | 0.9 | 3.5 | 0.00 | 0.00 | 0.00 | 82 | 1011.1 |
| 20260505050507 | 71 | 61 | 0.9 | 3.5 | 0.00 | 0.00 | 0.00 | 82 | 1011.1 |
| 20260505041515 | 72 | 71 | 1.7 | 4.3 | 0.00 | 0.00 | 0.00 | 80 | 1011.2 |
| 20260505041010 | 72 | 96 | 1.7 | 5.2 | 0.00 | 0.00 | 0.00 | 80 | 1011.1 |
| 20260505040023 | 72 | 86 | 1.7 | 6.1 | 0.00 | 0.00 | 0.00 | 79 | 1011.2 |
| 20260505035010 | 72 | 79 | 1.7 | 5.2 | 0.00 | 0.00 | 0.00 | 79 | 1011.3 |
| 20260505034506 | 72 | 73 | 1.7 | 5.2 | 0.00 | 0.00 | 0.00 | 79 | 1011.1 |
| 20260505034006 | 72 | 84 | 1.7 | 5.2 | 0.00 | 0.00 | 0.00 | 78 | 1011.2 |
| 20260505033503 | 72 | 79 | 1.7 | 7.0 | 0.00 | 0.00 | 0.00 | 78 | 1011.4 |
| 20260505033009 | 72 | 72 | 2.6 | 7.0 | 0.00 | 0.00 | 0.00 | 78 | 1011.4 |
| 20260505032505 | 73 | 65 | 1.7 | 5.2 | 0.00 | 0.00 | 0.00 | 78 | 1011.5 |
| 20260505032005 | 73 | 78 | 1.7 | 5.2 | 0.00 | 0.00 | 0.00 | 77 | 1011.5 |
| 20260505031530 | 73 | 81 | 1.7 | 7.0 | 0.00 | 0.00 | 0.00 | 77 | 1011.4 |
| 20260505031009 | 73 | 84 | 1.7 | 7.0 | 0.00 | 0.00 | 0.00 | 77 | 1011.3 |
| 20260505030509 | 73 | 65 | 2.6 | 6.1 | 0.00 | 0.00 | 0.00 | 76 | 1011.2 |
| 20260505030020 | 73 | 71 | 1.7 | 7.0 | 0.00 | 0.00 | 0.00 | 76 | 1011.3 |
| 20260505025511 | 73 | 65 | 1.7 | 7.0 | 0.00 | 0.00 | 0.00 | 76 | 1011.3 |
| 20260505025014 | 73 | 67 | 1.7 | 6.1 | 0.00 | 0.00 | 0.00 | 76 | 1011.2 |
| 20260505024508 | 73 | 84 | 1.7 | 5.2 | 0.00 | 0.00 | 0.00 | 76 | 1011.2 |
| 20260505024003 | 73 | 76 | 1.7 | 5.2 | 0.00 | 0.00 | 0.00 | 76 | 1011.3 |
| 20260505023503 | 73 | 88 | 1.7 | 7.0 | 0.00 | 0.00 | 0.00 | 76 | 1011.4 |
| 20260505023013 | 73 | 63 | 1.7 | 7.0 | 0.00 | 0.00 | 0.00 | 75 | 1011.3 |
| 20260505022506 | 73 | 84 | 1.7 | 5.2 | 0.00 | 0.00 | 0.00 | 75 | 1011.3 |
| 20260505022007 | 74 | 72 | 2.6 | 7.0 | 0.00 | 0.00 | 0.00 | 75 | 1011.2 |
| 20260505021520 | 74 | 105 | 1.7 | 7.0 | 0.00 | 0.00 | 0.00 | 75 | 1011.0 |
| 20260505021011 | 74 | 63 | 0.9 | 5.2 | 0.00 | 0.00 | 0.00 | 74 | 1011.1 |
| 20260505020508 | 74 | 45 | 1.7 | 5.2 | 0.00 | 0.00 | 0.00 | 74 | 1011.0 |
| 20260505020030 | 74 | 86 | 0.9 | 7.0 | 0.00 | 0.00 | 0.00 | 73 | 1011.0 |
| 20260505015513 | 74 | 63 | 3.5 | 7.0 | 0.00 | 0.00 | 0.00 | 73 | 1010.9 |
| 20260505015009 | 75 | 81 | 2.6 | 6.1 | 0.00 | 0.00 | 0.00 | 73 | 1011.0 |
| 20260505014529 | 75 | 84 | 2.6 | 6.1 | 0.00 | 0.00 | 0.00 | 73 | 1011.0 |
| 20260505014015 | 75 | 63 | 2.6 | 7.0 | 0.00 | 0.00 | 0.00 | 73 | 1010.9 |
| 20260505013514 | 75 | 75 | 0.9 | 7.0 | 0.00 | 0.00 | 0.00 | 73 | 1010.9 |
| 20260505013025 | 75 | 59 | 2.6 | 7.0 | 0.00 | 0.00 | 0.00 | 73 | 1010.7 |
| 20260505012506 | 75 | 71 | 2.6 | 7.8 | 0.00 | 0.00 | 0.00 | 73 | 1010.7 |
| 20260505012011 | 75 | 109 | 2.6 | 7.8 | 0.00 | 0.00 | 0.00 | 72 | 1010.7 |
| 20260505011529 | 75 | 79 | 1.7 | 7.0 | 0.00 | 0.00 | 0.00 | 73 | 1010.6 |
| 20260505011006 | 75 | 57 | 2.6 | 7.0 | 0.00 | 0.00 | 0.00 | 72 | 1010.6 |
| 20260505010508 | 75 | 64 | 1.7 | 7.0 | 0.00 | 0.00 | 0.00 | 72 | 1010.6 |
| 20260505010023 | 75 | 63 | 1.7 | 7.0 | 0.00 | 0.00 | 0.00 | 72 | 1010.7 |
| 20260505005507 | 75 | 86 | 2.6 | 7.0 | 0.00 | 0.00 | 0.00 | 71 | 1010.7 |
| 20260505005008 | 76 | 96 | 1.7 | 5.2 | 0.00 | 0.00 | 0.00 | 71 | 1010.6 |
| 20260505004542 | 76 | 105 | 1.7 | 6.1 | 0.00 | 0.00 | 0.00 | 71 | 1010.5 |
| 20260505004011 | 76 | 71 | 0.9 | 6.1 | 0.00 | 0.00 | 0.00 | 72 | 1010.6 |
| 20260505003509 | 76 | 74 | 2.6 | 6.1 | 0.00 | 0.00 | 0.00 | 71 | 1010.6 |
| 20260505003016 | 76 | 85 | 1.7 | 5.2 | 0.00 | 0.00 | 0.00 | 71 | 1010.4 |
| 20260505002514 | 76 | 72 | 2.6 | 5.2 | 0.00 | 0.00 | 0.00 | 70 | 1010.6 |
| 20260505002012 | 76 | 76 | 1.7 | 5.2 | 0.00 | 0.00 | 0.00 | 70 | 1010.5 |
| 20260505001522 | 76 | 80 | 1.7 | 5.2 | 0.00 | 0.00 | 0.00 | 70 | 1010.5 |
| 20260505001017 | 76 | 66 | 1.7 | 6.1 | 0.00 | 0.00 | 0.00 | 69 | 1010.5 |
| 20260505000508 | 76 | 67 | 1.7 | 6.1 | 0.00 | 0.00 | 0.00 | 69 | 1010.6 |
| 20260505000039 | 76 | 88 | 1.7 | 6.1 | 0.00 | 0.00 | 0.00 | 69 | 1010.7 |
| 20260504235510 | 77 | 91 | 1.7 | 6.1 | 0.00 | 0.00 | 0.00 | 69 | 1010.7 |
| 20260504235009 | 77 | 80 | 2.6 | 5.2 | 0.00 | 0.00 | 0.00 | 68 | 1010.7 |
| 20260504234526 | 77 | 96 | 1.7 | 6.1 | 0.00 | 0.00 | 0.00 | 69 | 1010.7 |
| 20260504234008 | 77 | 86 | 2.6 | 6.1 | 0.00 | 0.00 | 0.00 | 68 | 1010.7 |
| 20260504233513 | 77 | 72 | 2.6 | 7.0 | 0.00 | 0.00 | 0.00 | 68 | 1010.9 |
| 20260504231523 | 78 | 80 | 2.6 | 6.1 | 0.00 | 0.00 | 0.00 | 67 | 1010.9 |
| 20260504231012 | 78 | 83 | 2.6 | 6.1 | 0.00 | 0.00 | 0.00 | 67 | 1010.9 |
| 20260504230511 | 78 | 71 | 2.6 | 6.1 | 0.00 | 0.00 | 0.00 | 67 | 1010.9 |
| 20260504230026 | 78 | 96 | 1.7 | 6.1 | 0.00 | 0.00 | 0.00 | 66 | 1011.2 |
| 20260504225507 | 78 | 72 | 2.6 | 6.1 | 0.00 | 0.00 | 0.00 | 64 | 1011.1 |
| 20260504225012 | 78 | 70 | 2.6 | 5.2 | 0.00 | 0.00 | 0.00 | 64 | 1011.1 |
| 20260504224514 | 79 | 83 | 2.6 | 7.0 | 0.00 | 0.00 | 0.00 | 64 | 1011.1 |
| 20260504224011 | 79 | 79 | 1.7 | 7.0 | 0.00 | 0.00 | 0.00 | 63 | 1011.1 |
| 20260504223507 | 79 | 86 | 2.6 | 5.2 | 0.00 | 0.00 | 0.00 | 63 | 1011.3 |
| 20260504223020 | 79 | 93 | 1.7 | 4.3 | 0.00 | 0.00 | 0.00 | 62 | 1011.2 |
| 20260504222510 | 79 | 68 | 1.7 | 7.0 | 0.00 | 0.00 | 0.00 | 61 | 1011.3 |
| 20260504222007 | 79 | 60 | 2.6 | 7.0 | 0.00 | 0.00 | 0.00 | 61 | 1011.3 |
| 20260504221505 | 79 | 97 | 1.7 | 6.1 | 0.00 | 0.00 | 0.00 | 61 | 1011.4 |
| 20260504221008 | 79 | 53 | 0.9 | 7.0 | 0.00 | 0.00 | 0.00 | 62 | 1011.5 |
| 20260504220505 | 79 | 62 | 2.6 | 7.0 | 0.00 | 0.00 | 0.00 | 61 | 1011.6 |
| 20260504220012 | 79 | 64 | 0.9 | 4.3 | 0.00 | 0.00 | 0.00 | 61 | 1011.5 |
| 20260504215507 | 79 | 85 | 1.7 | 4.3 | 0.00 | 0.00 | 0.00 | 60 | 1011.5 |
| 20260504215008 | 80 | 76 | 1.7 | 4.3 | 0.00 | 0.00 | 0.00 | 61 | 1011.8 |
| 20260504214514 | 80 | 61 | 1.7 | 4.3 | 0.00 | 0.00 | 0.00 | 59 | 1011.7 |
| 20260504214009 | 80 | 123 | 2.6 | 5.2 | 0.00 | 0.00 | 0.00 | 58 | 1011.8 |
| 20260504213508 | 81 | 70 | 1.7 | 5.2 | 0.00 | 0.00 | 0.00 | 58 | 1011.8 |
| 20260504213023 | 80 | 63 | 0.9 | 5.2 | 0.00 | 0.00 | 0.00 | 59 | 1011.9 |
| 20260504212512 | 80 | 74 | 1.7 | 5.2 | 0.00 | 0.00 | 0.00 | 58 | 1012.1 |